Mosinee, WI

11:47 PM CDT on April 29, 2017 (GMT -0500)
Central Wisconsin

Weather History for KCWA - December, 2013

Change the Weather History Date:

Tuesday, December 31, 2013

  Actual Average Record
Temperature  
Mean Temperature -6 °F -  
Max Temperature 0 °F 23 °F 42 °F (2004)
Min Temperature -13 °F 7 °F -13 °F (2013)
Degree Days  
Heating Degree Days 72    
Moisture  
Dew Point -11 °F    
Average Humidity 80    
Maximum Humidity 92    
Minimum Humidity 60    
Precipitation  
Precipitation 0.00 in - - ()
Sea Level Pressure  
Sea Level Pressure 30.19 in    
Wind  
Wind Speed 6 mph (West)    
Max Wind Speed 17 mph    
Max Gust Speed 23 mph    
Visibility 10 miles    
Events Snow    
Averages and records for this station are not official NWS values.
T = Trace of Precipitation, MM = Missing Value Source: NWS Daily Summary

Daily Weather History Graph

Daily Weather History Graph

Search for Another Location

Airport or City:

Trip Planner

Search our weather history database for the weather conditions in past years. The results will help you decide how hot, cold, wet, or windy it might be!

Date:

Astronomy

Dec. 31, 2013 Rise Set
Actual Time 7:36 AM CST 4:27 PM CST
Civil Twilight 7:02 AM CST 5:01 PM CST
Nautical Twilight 6:25 AM CST 5:38 PM CST
Astronomical Twilight 5:50 AM CST 6:13 PM CST
Moon 6:27 AM CST (12/31) 4:05 PM CST (12/31)
Length of Visible Light 9h 58m
Length of Day
8h 51m
Waning Crescent, 1% of the Moon is Illuminated
Dec 31
Waning Crescent
Jan 1
New
Jan 7
First Quarter
Jan 15
Full
Jan 23
Last Quarter

Hourly Weather History & Observations

Time (CST) Temp. Windchill Dew Point Humidity Pressure Visibility Wind Dir Wind Speed Gust Speed Precip Events Conditions
12:15 AM -4.0 °F -16.3 °F -7.6 °F 85% 30.10 in 10.0 mi West 5.8 mph - N/A   Overcast
12:35 AM -2.2 °F -12.5 °F -7.6 °F 78% 30.09 in 10.0 mi West 4.6 mph - N/A   Overcast
12:55 AM -2.2 °F -12.5 °F -5.8 °F 85% 30.09 in 5.0 mi WNW 4.6 mph - N/A   Overcast
1:15 AM -2.2 °F - -5.8 °F 85% 30.08 in 10.0 mi Calm Calm - N/A   Overcast
1:35 AM -2.2 °F -12.5 °F -5.8 °F 85% 30.08 in 7.0 mi West 4.6 mph - N/A   Overcast
1:55 AM -4.0 °F -17.8 °F -7.6 °F 85% 30.08 in 10.0 mi West 6.9 mph - N/A   Overcast
2:15 AM -2.2 °F -15.6 °F -5.8 °F 85% 30.08 in 10.0 mi West 6.9 mph - N/A Snow Light Snow
2:35 AM -4.0 °F -19.0 °F -5.8 °F 92% 30.09 in 10.0 mi West 8.1 mph - N/A   Overcast
2:55 AM -2.2 °F -16.8 °F -5.8 °F 85% 30.10 in 10.0 mi West 8.1 mph - N/A   Overcast
3:15 AM -2.2 °F -18.0 °F -5.8 °F 85% 30.10 in 7.0 mi West 9.2 mph - N/A   Overcast
3:35 AM -2.2 °F -18.9 °F -5.8 °F 85% 30.10 in 10.0 mi West 10.4 mph - N/A Snow Light Snow
3:55 AM -2.2 °F -18.9 °F -5.8 °F 85% 30.09 in 10.0 mi WNW 10.4 mph - N/A Snow Light Snow
4:15 AM -2.2 °F -15.6 °F -5.8 °F 85% 30.10 in 7.0 mi WNW 6.9 mph - N/A Snow Light Snow
4:35 AM -2.2 °F -15.6 °F -5.8 °F 85% 30.10 in 7.0 mi WNW 6.9 mph - N/A   Overcast
5:45 AM -4.0 °F -16.3 °F -7.6 °F 85% 30.10 in 10.0 mi West 5.8 mph - N/A   Overcast
6:45 AM -4.0 °F -20.2 °F -7.6 °F 85% 30.13 in 10.0 mi West 9.2 mph - N/A   Overcast
7:50 AM -5.8 °F -19.9 °F -9.4 °F 84% 30.14 in 10.0 mi West 6.9 mph - N/A   Clear
8:45 AM -5.8 °F -23.4 °F -9.4 °F 84% 30.14 in 10.0 mi West 10.4 mph - N/A   Clear
9:45 AM -4.0 °F -20.2 °F -7.6 °F 85% 30.17 in 10.0 mi West 9.2 mph - N/A   Clear
10:45 AM -2.2 °F -20.7 °F -9.4 °F 71% 30.20 in 10.0 mi WSW 12.7 mph - N/A   Clear
11:50 AM -0.4 °F -17.6 °F -9.4 °F 66% 30.19 in 10.0 mi WSW 11.5 mph - N/A   Clear
12:45 PM -0.4 °F -20.5 °F -9.4 °F 66% 30.19 in 10.0 mi WSW 16.1 mph - N/A   Clear
1:45 PM -0.4 °F -21.2 °F -11.2 °F 60% 30.20 in 10.0 mi WNW 17.3 mph 23.0 mph N/A   Clear
2:45 PM -2.2 °F -22.2 °F -11.2 °F 66% 30.20 in 10.0 mi West 15.0 mph 19.6 mph N/A   Clear
3:45 PM -4.0 °F -22.1 °F -11.2 °F 71% 30.22 in 10.0 mi NW 11.5 mph - N/A   Clear
4:45 PM -5.8 °F -22.4 °F -11.2 °F 77% 30.24 in 10.0 mi WNW 9.2 mph - N/A   Clear
5:45 PM -5.8 °F -19.9 °F -14.8 °F 65% 30.26 in 10.0 mi NW 6.9 mph - N/A   Clear
6:45 PM -7.6 °F -22.1 °F -14.8 °F 71% 30.28 in 10.0 mi NW 6.9 mph - N/A   Clear
7:45 PM -9.4 °F -20.9 °F -16.6 °F 71% 30.28 in 10.0 mi NW 4.6 mph - N/A   Clear
8:45 PM -11.2 °F - -18.4 °F 70% 30.31 in 10.0 mi Calm Calm - N/A   Clear
9:15 PM -11.2 °F -20.6 °F -14.8 °F 84% 30.31 in 10.0 mi West 3.5 mph - N/A   Clear
9:35 PM -13.0 °F - -16.6 °F 84% 30.30 in 10.0 mi Calm Calm - N/A   Clear
9:45 PM -13.0 °F - -16.6 °F 84% 30.31 in 10.0 mi Calm Calm - N/A   Clear
9:55 PM -13.0 °F - -16.6 °F 84% 30.31 in 10.0 mi Calm Calm - N/A   Scattered Clouds
10:15 PM -13.0 °F - -16.6 °F 84% 30.31 in 10.0 mi Calm Calm - N/A   Clear
10:35 PM -11.2 °F - -14.8 °F 84% 30.31 in 10.0 mi Calm Calm - N/A   Mostly Cloudy
10:55 PM -11.2 °F - -14.8 °F 84% 30.33 in 10.0 mi Calm Calm - N/A   Overcast
11:15 PM -13.0 °F - -16.6 °F 84% 30.34 in 10.0 mi Calm Calm - N/A   Mostly Cloudy
11:35 PM -13.0 °F - -16.6 °F 84% 30.33 in 10.0 mi Calm Calm - N/A   Clear
11:55 PM -11.2 °F - -14.8 °F 84% 30.33 in 10.0 mi Calm Calm - N/A   Scattered Clouds